LRFT Weather Reports


Display with metric or nautical units.
time (UTC)temp
F
wind
direction
speed
MPH
gust
MPH
rain 1hr
in
rain 24hr
in
rain mn
in
humidity
%
barometer
mb
20260906143359 82 330 14.0 25.0 0.00 0.00 0.00 32 1018.0
20260906141931 82 330 14.0 25.0 0.00 0.00 0.00 32 1018.0
20260906140359 82 330 14.0 25.0 0.00 0.00 0.00 32 1018.0
20260906134859 82 300 20.0 0.0 0.00 0.00 0.00 30 1018.0
20260906133400 82 300 20.0 0.0 0.00 0.00 0.00 30 1018.0
20260906131859 82 300 20.0 0.0 0.00 0.00 0.00 30 1018.0
20260906130401 82 300 20.0 0.0 0.00 0.00 0.00 30 1018.0
20260906124854 81 330 18.0 0.0 0.00 0.00 0.00 34 1019.0
20260906123357 81 330 18.0 0.0 0.00 0.00 0.00 34 1019.0
20260906121853 81 330 18.0 0.0 0.00 0.00 0.00 34 1019.0
20260906120356 81 330 18.0 0.0 0.00 0.00 0.00 34 1019.0
20260906114900 81 320 11.0 0.0 0.00 0.00 0.00 37 1019.0
20260906113359 81 320 11.0 0.0 0.00 0.00 0.00 37 1019.0
20260906111858 81 320 11.0 0.0 0.00 0.00 0.00 37 1019.0
20260906110400 81 320 11.0 0.0 0.00 0.00 0.00 37 1019.0
20260906104859 79 330 11.0 0.0 0.00 0.00 0.00 34 1019.0
20260906103400 79 330 11.0 0.0 0.00 0.00 0.00 34 1019.0
20260906101857 79 330 11.0 0.0 0.00 0.00 0.00 34 1019.0
20260906100400 79 330 11.0 0.0 0.00 0.00 0.00 34 1019.0
20260906094900 75 350 6.0 0.0 0.00 0.00 0.00 44 1019.0
20260906093400 75 350 6.0 0.0 0.00 0.00 0.00 44 1019.0
20260906091901 75 350 6.0 0.0 0.00 0.00 0.00 44 1019.0
20260906090401 75 350 6.0 0.0 0.00 0.00 0.00 44 1019.0
20260906084900 75 20 8.0 0.0 0.00 0.00 0.00 44 1019.0
20260906083359 75 20 8.0 0.0 0.00 0.00 0.00 44 1019.0
20260906081859 75 20 8.0 0.0 0.00 0.00 0.00 44 1019.0
20260906080400 75 20 8.0 0.0 0.00 0.00 0.00 44 1019.0
20260906074859 72 30 10.0 0.0 0.00 0.00 0.00 50 1019.0
20260906073359 72 30 10.0 0.0 0.00 0.00 0.00 50 1019.0
20260906071900 72 30 10.0 0.0 0.00 0.00 0.00 50 1019.0
20260906070359 72 30 10.0 0.0 0.00 0.00 0.00 50 1019.0
20260906064859 70 20 10.0 0.0 0.00 0.00 0.00 53 1019.0
20260906063400 70 20 10.0 0.0 0.00 0.00 0.00 53 1019.0
20260906062022 0 0.0 0.0 0.00 0.00 0.00
20260906060359 70 20 10.0 0.0 0.00 0.00 0.00 53 1019.0
20260906054925 66 20 9.0 0.0 0.00 0.00 0.00 64 1018.0
20260906053359 66 20 9.0 0.0 0.00 0.00 0.00 64 1018.0
20260906051900 66 20 9.0 0.0 0.00 0.00 0.00 64 1018.0
20260906050522 0 0.0 0.0 0.00 0.00 0.00
20260906045022 0 0.0 0.0 0.00 0.00 0.00
20260906043511 0 0.0 0.0 0.00 0.00 0.00
20260906042023 0 0.0 0.0 0.00 0.00 0.00
20260906040419 64 20 9.0 0.0 0.00 0.00 0.00 68 1017.0
20260906034922 0 0.0 0.0 0.00 0.00 0.00
20260906033522 0 0.0 0.0 0.00 0.00 0.00
20260906032024 0 0.0 0.0 0.00 0.00 0.00
20260906030522 0 0.0 0.0 0.00 0.00 0.00
20260906024927 66 300 3.0 0.0 0.00 0.00 0.00 68 1016.0
20260906023400 0 0.0 0.0 0.00 0.00 0.00
20260906021906 0 0.0 0.0 0.00 0.00 0.00
20260906020401 0 0.0 0.0 0.00 0.00 0.00
20260906014901 0 0.0 0.0 0.00 0.00 0.00
20260906013523 0 0.0 0.0 0.00 0.00 0.00
20260906011859 0 0.0 0.0 0.00 0.00 0.00
20260906010359 0 0.0 0.0 0.00 0.00 0.00
20260906005022 0 0.0 0.0 0.00 0.00 0.00
20260906003532 0 0.0 0.0 0.00 0.00 0.00
20260906002023 0 0.0 0.0 0.00 0.00 0.00
20260906000513 0 0.0 0.0 0.00 0.00 0.00
20260905234910 0 0.0 0.0 0.00 0.00 0.00
20260905233359 0 0.0 0.0 0.00 0.00 0.00
20260905232025 0 0.0 0.0 0.00 0.00 0.00
20260905230432 0 0.0 0.0 0.00 0.00 0.00
20260905225024 0 0.0 0.0 0.00 0.00 0.00
20260905223413 0 0.0 0.0 0.00 0.00 0.00
20260905222009 0 0.0 0.0 0.00 0.00 0.00
20260905220522 0 0.0 0.0 0.00 0.00 0.00
20260905215021 0 0.0 0.0 0.00 0.00 0.00
20260905213400 0 0.0 0.0 0.00 0.00 0.00
20260905211856 0 0.0 0.0 0.00 0.00 0.00
20260905210400 0 0.0 0.0 0.00 0.00 0.00
20260905204910 75 250 7.0 0.0 0.00 0.00 0.00 41 1014.0
20260905203359 75 250 7.0 0.0 0.00 0.00 0.00 41 1014.0
20260905201859 75 250 7.0 0.0 0.00 0.00 0.00 41 1014.0
20260905200522 0 0.0 0.0 0.00 0.00 0.00
20260905195015 0 0.0 0.0 0.00 0.00 0.00
20260905193400 81 250 9.0 0.0 0.00 0.00 0.00 34 1014.0
20260905191929 81 250 9.0 0.0 0.00 0.00 0.00 34 1014.0
20260905190401 0 0.0 0.0 0.00 0.00 0.00
20260905184857 82 240 9.0 0.0 0.00 0.00 0.00 32 1014.0
20260905183405 82 240 9.0 0.0 0.00 0.00 0.00 32 1014.0
20260905181857 82 240 9.0 0.0 0.00 0.00 0.00 32 1014.0
20260905180356 82 240 9.0 0.0 0.00 0.00 0.00 32 1014.0
20260905174853 84 240 8.0 0.0 0.00 0.00 0.00 33 1014.0
20260905173359 84 240 8.0 0.0 0.00 0.00 0.00 33 1014.0
20260905171901 84 240 8.0 0.0 0.00 0.00 0.00 33 1014.0
20260905170400 84 240 8.0 0.0 0.00 0.00 0.00 33 1014.0
20260905164900 90 270 14.0 0.0 0.00 0.00 0.00 27 1014.0
20260905163401 90 270 14.0 0.0 0.00 0.00 0.00 27 1014.0
20260905161858 90 270 14.0 0.0 0.00 0.00 0.00 27 1014.0
20260905160400 90 270 14.0 0.0 0.00 0.00 0.00 27 1014.0
20260905154910 90 270 14.0 0.0 0.00 0.00 0.00 27 1014.0
20260905153359 90 270 14.0 0.0 0.00 0.00 0.00 27 1014.0
20260905151900 90 270 14.0 0.0 0.00 0.00 0.00 27 1014.0
20260905150400 90 270 14.0 0.0 0.00 0.00 0.00 27 1014.0
20260905144853 91 270 16.0 0.0 0.00 0.00 0.00 24 1014.0